Wind_Speed
15 15 14 12 11 14 5 2 5 6 5 4 3 5 5 3 3 1 1 1 2 2 3 3 4 5 6 6 7 9 10 11 11 11 10 10 10 10 10 10 10 10 10 10 10 10 10 10 10
13 12 11 11 12 9 1 5 5 5 5 5 5 6 5 4 4 3 3 3 3 4 4 5 6 6 7 7 8 9 10 11 11 11 11 11 11 11 11 10 10 10 10 10 9 9 9 9 9
9 7 7 8 9 5 4 7 5 5 5 6 7 6 6 6 5 5 5 5 6 6 7 7 8 8 8 9 10 10 11 11 12 12 12 12 12 12 12 11 11 11 10 10 10 10 9 9 9
5 5 5 7 5 2 6 7 6 5 5 7 8 7 7 8 8 8 8 8 8 8 9 10 10 10 11 11 11 12 12 13 12 13 13 13 13 14 14 13 13 13 12 11 11 11 10 10 10
3 3 4 3 1 3 6 5 4 6 7 8 9 8 9 9 10 10 10 10 10 10 11 11 12 12 12 13 13 13 13 14 14 14 15 15 15 16 16 16 15 15 14 14 13 13 12 12 11
4 3 2 8 7 2 5 7 5 8 9 9 10 9 10 10 11 11 11 11 11 11 12 12 13 13 13 14 14 15 15 15 16 16 17 17 18 18 18 18 18 17 17 16 16 15 14 14 13
6 4 2 8 10 5 6 9 9 9 10 9 12 11 11 11 11 11 12 12 12 12 12 13 13 13 14 15 16 16 17 17 18 19 20 20 20 20 20 20 20 20 20 19 18 18 17 17 16
9 8 4 9 12 9 8 9 12 12 13 13 14 15 12 12 11 11 11 12 12 12 12 13 14 15 16 17 18 19 19 20 21 22 23 23 24 24 23 23 23 23 22 22 22 21 21 20 19
12 10 7 11 14 13 10 10 13 14 16 15 15 17 15 13 12 11 11 12 13 13 14 15 16 17 18 19 20 21 22 23 24 25 26 26 27 26 26 27 27 27 26 26 26 25 25 24 23
15 14 10 13 17 16 13 12 13 13 16 18 17 18 16 14 13 13 13 14 15 16 17 18 19 20 21 22 23 24 24 26 27 27 28 28 29 29 29 29 30 30 30 29 28 28 28 28 27
19 18 15 16 18 19 17 13 13 13 17 20 21 18 15 12 15 16 16 17 18 19 20 21 22 22 24 24 25 26 27 27 28 29 29 30 31 31 31 31 31 31 31 31 31 31 31 31 31
22 22 21 21 21 21 20 18 16 17 21 23 24 23 19 16 18 20 20 21 21 22 22 23 24 25 26 27 27 28 29 29 29 30 30 31 32 32 32 33 33 33 32 33 33 32 33 33 33
23 24 24 24 25 24 22 21 19 20 22 24 25 26 24 22 22 24 25 25 24 25 25 26 27 27 28 29 29 30 29 30 31 31 32 31 32 32 32 32 32 33 33 32 32 32 33 33 34
25 26 26 26 26 24 23 22 21 22 24 26 26 28 29 28 27 27 28 27 27 28 29 29 30 30 31 31 30 30 30 30 30 31 32 32 32 32 31 30 30 30 31 31 31 31 31 31 31
26 27 27 26 24 23 23 24 22 22 25 27 27 28 30 30 29 29 30 30 32 32 32 32 33 33 32 32 32 32 32 32 30 31 31 31 31 31 30 29 29 29 28 28 29 29 29 28 28
23 24 24 22 21 21 23 24 21 24 28 30 29 28 29 30 31 32 33 34 35 36 35 35 35 35 34 34 34 33 33 32 31 30 30 30 29 29 29 28 28 28 27 27 27 27 27 27 26
16 17 18 16 17 22 25 24 22 26 30 32 30 30 29 31 34 36 36 36 36 37 36 35 36 36 36 36 35 35 34 32 31 31 30 29 29 29 28 27 26 26 26 26 26 25 25 25 25
10 11 14 13 16 24 26 24 23 28 33 33 33 34 33 34 35 36 36 37 37 37 34 35 36 37 38 37 37 36 35 33 31 30 29 28 28 28 27 26 25 25 25 24 24 24 24 24 24
17 17 17 16 21 26 28 27 25 28 33 35 36 36 36 36 37 36 35 36 37 37 37 36 37 38 38 38 38 38 36 33 32 29 28 28 27 27 26 25 25 24 24 23 23 23 23 23 23
13 14 14 16 20 26 29 28 25 27 31 33 35 34 34 36 37 36 35 35 35 36 36 37 38 39 39 39 39 38 36 34 32 30 28 27 26 26 26 25 25 25 24 24 24 24 23 23 24
6 9 13 16 18 20 19 20 19 22 27 31 32 31 31 33 33 31 33 34 34 35 35 38 39 39 40 41 39 38 35 34 31 29 28 27 26 26 26 26 26 25 25 25 25 25 25 25 25
8 12 15 17 18 18 16 18 19 23 28 30 27 26 27 26 28 29 30 32 34 35 36 38 39 40 40 39 38 37 35 32 29 29 29 28 27 26 27 27 27 27 27 27 27 27 27 26 26
11 14 15 14 14 13 13 16 19 24 28 28 26 27 29 28 28 28 30 32 33 35 36 37 37 38 39 38 39 37 34 32 31 30 30 30 29 29 28 29 29 29 29 29 29 29 29 28 28
11 10 9 10 15 18 17 17 20 24 27 28 30 30 30 30 26 27 29 30 32 34 35 36 36 37 38 37 38 38 36 34 33 33 33 32 32 32 31 31 31 31 32 32 32 31 31 31 30
11 9 11 15 18 20 16 13 18 22 23 27 31 31 31 30 30 31 30 31 33 34 35 37 38 39 39 39 40 39 38 37 36 36 35 34 34 34 34 34 33 33 34 34 34 33 33 32 32
10 9 11 16 17 20 20 19 21 22 24 27 28 29 31 33 34 34 34 35 36 38 39 41 42 42 43 43 43 43 43 42 41 40 39 38 38 37 37 37 36 36 36 36 36 35 35 34 34
10 9 10 14 14 14 16 24 27 26 26 26 28 31 34 37 38 38 39 39 40 42 44 45 46 47 47 48 48 48 48 47 46 45 44 43 42 41 40 40 39 39 38 38 38 37 37 36 35
13 13 14 15 16 17 16 25 32 32 32 32 33 34 37 40 41 42 43 43 44 46 47 48 49 50 51 52 52 53 52 52 51 50 50 49 47 45 43 43 42 41 41 40 39 39 38 38 37
13 15 16 18 19 21 22 27 32 34 34 36 38 40 41 43 45 46 47 48 48 49 51 51 52 53 54 55 55 56 56 56 55 55 54 53 52 50 48 46 45 44 43 42 41 40 39 39 38
13 16 19 20 22 22 23 29 31 33 35 37 40 43 44 46 49 50 51 52 53 53 54 55 56 57 58 58 59 59 59 59 59 59 58 57 56 55 54 51 49 47 46 45 43 42 41 40 39
Wind_Direction
85 87 91 95 88 76 76 233 240 249 254 245 236 241 249 264 299 283 283 320 344 348 354 350 345 346 348 346 345 345 345 345 345 345 346 348 350 352 354 355 356 356 358 1 2 3 4 7 7
90 94 101 96 84 88 6 302 291 297 293 269 250 250 256 254 259 257 262 281 292 304 314 318 319 321 326 329 331 332 333 335 336 336 336 336 338 341 343 345 346 346 347 348 349 350 352 353 355
99 104 105 86 71 63 338 325 339 328 306 283 269 270 269 261 261 259 264 271 279 289 297 302 305 308 312 317 320 322 324 325 326 328 328 328 329 330 332 333 333 333 334 335 336 336 337 339 341
115 112 103 81 80 336 316 334 358 331 304 286 279 274 271 268 266 267 269 272 276 284 291 294 298 303 308 312 315 318 319 321 321 321 321 322 322 323 323 324 323 323 323 322 323 324 323 324 326
148 142 68 10 318 322 315 323 333 305 309 297 287 280 275 274 272 272 273 275 279 286 292 295 299 303 307 311 314 316 317 317 317 316 316 316 316 317 317 317 316 315 315 313 312 312 312 312 313
203 178 359 300 290 283 306 302 292 295 302 301 293 287 280 277 275 277 278 281 284 289 294 299 303 306 309 311 313 314 314 314 313 313 312 312 312 312 311 311 310 308 307 306 305 304 303 302 303
228 220 269 299 288 269 283 290 288 292 291 292 293 288 283 280 281 282 283 286 290 294 299 302 305 307 309 311 312 312 312 312 311 310 310 309 308 308 307 305 304 303 301 300 299 297 297 295 294
240 237 236 276 276 270 270 272 273 279 282 288 292 290 288 285 283 284 287 293 296 299 303 306 308 309 310 310 310 310 309 309 308 308 306 305 304 303 302 300 298 297 296 295 293 291 290 289 287
241 236 242 269 271 257 250 257 270 279 285 290 289 285 287 284 284 285 289 293 297 300 303 305 307 308 307 308 309 308 306 306 305 303 302 301 300 299 298 297 295 293 293 291 288 287 285 283 282
241 234 238 263 265 256 257 261 274 285 287 285 278 273 275 281 285 286 290 294 297 301 304 305 306 307 307 307 307 306 304 303 301 300 299 298 296 295 293 293 292 291 290 288 286 284 282 280 278
244 238 235 253 260 257 263 270 274 270 269 273 271 266 265 277 285 288 291 293 295 300 303 305 307 308 308 308 307 305 303 301 299 298 297 296 294 293 292 291 290 289 289 287 286 284 281 279 275
249 243 236 245 254 259 262 258 258 262 263 268 274 285 286 287 286 287 289 290 293 298 302 304 307 309 309 310 309 307 304 301 298 297 295 295 293 291 291 291 289 287 287 286 285 283 282 280 276
250 250 244 246 252 259 261 260 257 258 262 268 273 281 286 288 285 286 289 291 293 298 301 303 305 307 308 309 309 309 306 303 301 299 296 294 293 292 291 291 290 289 288 287 285 285 284 282 280
251 251 250 252 256 258 261 262 260 263 263 266 270 276 281 282 284 286 288 290 295 298 300 302 304 306 307 308 308 308 307 304 302 299 296 293 293 292 291 291 290 289 288 287 287 286 285 287 287
258 258 257 257 260 263 264 263 263 264 264 267 269 274 277 280 282 284 286 291 295 296 298 300 301 304 305 306 306 306 305 303 301 298 296 294 291 291 289 289 288 287 287 287 287 287 288 288 289
266 264 262 261 263 262 261 262 261 261 262 262 264 269 271 277 282 282 285 289 291 293 295 297 299 301 302 303 304 304 303 302 299 297 295 294 291 289 289 289 288 287 287 287 288 289 290 290 290
273 277 277 272 261 252 255 261 259 261 264 265 268 270 270 276 280 282 283 286 287 289 290 292 296 298 299 300 301 301 301 300 298 296 294 292 291 290 288 288 288 288 288 289 290 291 291 292 293
263 266 271 271 255 250 254 257 255 257 264 268 271 272 271 272 276 278 279 282 284 286 286 291 293 295 296 297 299 300 300 298 296 294 291 290 288 287 287 286 287 287 288 290 292 293 293 294 294
247 237 233 234 237 249 255 257 256 257 263 268 271 273 273 274 277 277 275 278 281 284 286 287 288 291 293 294 296 297 296 295 293 292 290 288 286 285 285 285 285 286 287 289 291 293 295 295 295
257 252 249 252 255 257 263 268 266 262 269 273 276 279 276 272 274 275 275 277 278 279 282 284 286 287 289 291 292 294 293 292 291 290 289 286 284 284 283 283 285 286 286 287 290 292 294 296 297
271 261 253 247 254 264 275 283 282 272 269 272 277 277 277 276 275 275 275 277 277 277 280 283 284 285 287 289 290 291 292 292 289 287 287 286 284 283 282 282 283 284 285 286 289 290 292 294 296
270 255 256 260 264 267 266 270 274 268 269 272 277 283 283 276 279 277 273 276 276 278 281 282 282 284 285 287 289 289 290 290 289 289 288 286 284 282 282 282 282 282 283 285 287 288 290 291 293
267 264 268 272 273 270 263 266 268 268 270 272 280 281 284 290 288 283 281 278 277 278 280 281 281 283 285 287 290 290 291 290 290 288 287 285 284 282 281 281 281 280 281 283 284 285 286 288 290
288 280 275 284 280 266 256 251 260 270 279 282 288 289 295 296 291 286 286 284 280 280 282 282 284 285 286 287 290 288 288 288 288 286 285 284 283 281 280 279 279 278 279 280 281 282 283 285 287
292 292 294 297 302 300 291 265 260 273 282 289 294 296 297 297 297 295 291 289 287 285 285 285 287 286 287 288 289 288 287 286 285 283 283 282 280 279 279 278 278 277 277 278 278 279 280 281 283
305 296 297 300 306 315 317 298 277 271 278 287 292 294 299 300 298 294 292 291 289 288 288 287 287 287 286 287 287 286 285 285 283 282 280 280 279 276 277 277 277 276 276 276 276 276 277 278 280
325 313 297 295 298 301 304 296 293 285 284 287 288 294 300 301 299 296 294 292 290 289 288 287 286 285 285 285 285 284 284 283 282 280 279 278 278 276 274 274 275 275 275 275 275 273 273 275 276
312 317 316 310 305 300 299 296 295 296 298 297 295 299 300 300 298 297 295 293 291 289 288 287 285 284 283 283 282 282 282 281 280 279 278 277 276 275 274 273 272 272 271 272 273 272 272 273 274
299 305 306 305 302 298 296 293 291 296 295 295 298 300 299 299 297 296 295 294 292 290 288 287 286 284 283 282 281 280 280 279 278 278 277 276 275 274 273 272 271 271 270 269 269 270 270 270 271
303 315 318 313 309 306 302 293 294 293 293 296 297 298 297 296 296 295 294 293 292 290 289 287 286 285 283 282 281 280 279 278 277 276 275 274 273 273 272 271 270 270 269 267 266 266 267 268 269
Height
5922 5922 5922 5923 5923 5922 5924 5924 5922 5921 5920 5920 5920 5919 5919 5919 5920 5922 5920 5919 5919 5919 5919 5918 5918 5918 5917 5917 5916 5915 5915 5914 5913 5912 5911 5910 5909 5908 5906 5905 5904 5903 5902 5901 5899 5898 5897 5896 5895
5924 5925 5925 5924 5923 5923 5925 5923 5922 5921 5921 5920 5919 5919 5919 5919 5919 5919 5919 5919 5919 5918 5918 5918 5918 5917 5917 5916 5916 5915 5914 5914 5913 5912 5911 5910 5909 5908 5907 5905 5904 5903 5902 5901 5900 5899 5898 5897 5896
5925 5925 5926 5924 5924 5923 5924 5923 5922 5921 5921 5920 5919 5920 5920 5919 5919 5919 5918 5918 5918 5918 5918 5917 5917 5917 5916 5915 5915 5914 5914 5913 5912 5911 5910 5909 5908 5907 5906 5905 5904 5903 5901 5900 5900 5899 5898 5897 5896
5925 5926 5926 5925 5925 5925 5925 5924 5923 5922 5921 5920 5919 5919 5919 5919 5919 5918 5917 5917 5917 5917 5917 5916 5916 5916 5915 5914 5914 5913 5913 5912 5911 5910 5909 5908 5907 5906 5905 5904 5903 5902 5901 5900 5899 5898 5897 5896 5895
5925 5926 5925 5925 5924 5924 5924 5924 5923 5921 5920 5919 5919 5918 5918 5918 5917 5917 5916 5916 5916 5916 5915 5915 5915 5914 5914 5913 5913 5912 5911 5911 5910 5909 5908 5907 5906 5905 5904 5902 5901 5900 5899 5898 5897 5897 5896 5895 5894
5925 5925 5925 5925 5924 5924 5924 5923 5922 5920 5919 5918 5917 5917 5917 5917 5916 5916 5915 5915 5915 5915 5914 5914 5913 5913 5913 5912 5911 5911 5910 5909 5908 5907 5906 5905 5904 5903 5901 5900 5899 5898 5897 5896 5895 5895 5894 5893 5893
5924 5924 5924 5925 5923 5921 5923 5922 5921 5919 5918 5918 5915 5915 5915 5915 5914 5914 5913 5913 5913 5913 5913 5912 5912 5911 5911 5910 5909 5909 5908 5907 5906 5905 5904 5903 5901 5900 5899 5897 5896 5895 5894 5893 5892 5892 5891 5891 5890
5922 5924 5923 5924 5922 5920 5922 5921 5919 5918 5917 5916 5915 5912 5913 5913 5913 5912 5911 5911 5911 5911 5911 5910 5910 5909 5909 5908 5907 5906 5906 5905 5903 5902 5901 5899 5898 5897 5895 5894 5892 5891 5890 5890 5889 5888 5888 5887 5887
5919 5922 5922 5922 5921 5918 5917 5918 5917 5916 5915 5914 5913 5911 5911 5911 5910 5910 5909 5909 5909 5908 5908 5908 5908 5907 5906 5905 5904 5903 5902 5901 5900 5898 5897 5895 5894 5892 5891 5889 5888 5887 5886 5885 5884 5883 5883 5883 5882
5916 5918 5920 5920 5918 5916 5914 5915 5916 5915 5913 5911 5909 5908 5908 5908 5908 5908 5907 5907 5906 5905 5905 5905 5904 5904 5903 5902 5901 5899 5898 5896 5895 5893 5892 5890 5888 5887 5886 5885 5883 5881 5880 5879 5878 5878 5877 5877 5877
5911 5914 5916 5916 5915 5913 5913 5913 5914 5913 5911 5908 5905 5902 5903 5903 5905 5905 5905 5904 5903 5902 5901 5901 5900 5899 5898 5897 5896 5894 5893 5891 5890 5888 5886 5885 5883 5881 5880 5879 5877 5876 5874 5873 5872 5871 5870 5870 5869
5907 5909 5910 5912 5911 5910 5911 5911 5912 5910 5908 5905 5900 5898 5899 5900 5901 5901 5901 5900 5899 5898 5897 5896 5896 5895 5893 5892 5890 5889 5887 5885 5884 5882 5880 5878 5876 5875 5873 5872 5870 5869 5868 5867 5865 5864 5863 5862 5861
5902 5903 5904 5906 5906 5906 5907 5907 5907 5906 5904 5901 5898 5896 5896 5895 5897 5897 5896 5894 5893 5894 5893 5892 5891 5890 5888 5887 5885 5883 5881 5879 5877 5875 5873 5871 5870 5868 5866 5865 5863 5862 5860 5859 5858 5857 5856 5855 5854
5896 5897 5898 5900 5901 5902 5903 5903 5903 5903 5901 5899 5897 5895 5894 5894 5893 5892 5890 5889 5887 5888 5888 5886 5886 5885 5883 5881 5880 5878 5876 5874 5871 5869 5867 5865 5863 5862 5860 5858 5857 5855 5853 5852 5851 5850 5849 5847 5847
5890 5891 5893 5894 5896 5897 5898 5899 5899 5899 5897 5896 5894 5892 5891 5889 5889 5887 5884 5883 5882 5882 5882 5880 5879 5879 5877 5876 5874 5872 5870 5868 5865 5863 5861 5859 5857 5855 5852 5851 5850 5849 5847 5846 5844 5843 5842 5841 5840
5885 5886 5887 5890 5892 5893 5895 5894 5895 5894 5892 5890 5889 5888 5886 5884 5883 5881 5879 5878 5877 5876 5875 5874 5873 5872 5871 5870 5868 5866 5864 5862 5859 5857 5855 5853 5850 5848 5847 5845 5844 5843 5842 5840 5839 5838 5836 5835 5834
5882 5883 5884 5887 5889 5889 5890 5889 5889 5887 5886 5883 5882 5881 5879 5877 5878 5875 5873 5872 5870 5868 5867 5867 5866 5866 5865 5863 5861 5859 5857 5855 5853 5851 5849 5846 5844 5843 5841 5840 5839 5838 5836 5835 5833 5832 5831 5830 5828
5881 5883 5885 5886 5886 5883 5883 5883 5883 5883 5880 5878 5878 5876 5873 5871 5870 5869 5866 5862 5862 5860 5858 5859 5860 5859 5858 5856 5854 5852 5850 5848 5846 5844 5842 5840 5838 5837 5835 5834 5833 5831 5830 5829 5828 5827 5825 5824 5823
5875 5877 5879 5881 5879 5877 5876 5876 5877 5876 5874 5872 5870 5869 5867 5863 5861 5861 5856 5856 5856 5855 5854 5854 5854 5853 5851 5849 5847 5845 5843 5841 5839 5837 5836 5834 5832 5831 5829 5828 5827 5826 5825 5824 5823 5821 5820 5819 5818
5872 5873 5875 5875 5874 5872 5871 5870 5870 5870 5868 5865 5862 5860 5858 5855 5853 5853 5852 5850 5850 5850 5849 5848 5847 5845 5844 5842 5840 5838 5835 5834 5832 5830 5829 5827 5826 5825 5823 5822 5821 5820 5819 5818 5817 5816 5815 5814 5812
5870 5871 5870 5870 5868 5867 5867 5866 5865 5864 5862 5859 5855 5852 5850 5848 5845 5845 5846 5845 5844 5842 5842 5841 5840 5837 5836 5834 5832 5830 5828 5826 5825 5823 5822 5821 5820 5818 5817 5816 5815 5814 5813 5812 5811 5810 5809 5808 5806
5867 5865 5865 5864 5863 5863 5864 5862 5861 5857 5854 5851 5848 5846 5842 5837 5837 5838 5838 5838 5837 5835 5835 5834 5832 5830 5829 5826 5823 5822 5821 5819 5817 5816 5814 5814 5813 5812 5811 5810 5809 5808 5807 5806 5805 5804 5802 5802 5801
5863 5862 5861 5860 5859 5858 5859 5859 5857 5851 5848 5845 5843 5841 5837 5831 5832 5832 5831 5831 5830 5829 5827 5825 5823 5823 5821 5818 5816 5814 5812 5811 5810 5809 5807 5806 5805 5805 5804 5803 5802 5801 5800 5799 5798 5797 5796 5795 5794
5860 5859 5858 5857 5854 5852 5852 5852 5851 5846 5843 5840 5838 5836 5834 5830 5827 5827 5825 5824 5822 5821 5820 5817 5815 5814 5812 5810 5808 5806 5805 5803 5802 5801 5799 5798 5797 5797 5796 5795 5794 5793 5792 5791 5791 5790 5789 5788 5787
5858 5857 5856 5853 5850 5846 5844 5845 5845 5842 5840 5837 5834 5832 5829 5827 5824 5823 5820 5819 5816 5813 5812 5809 5807 5805 5803 5801 5799 5797 5796 5794 5793 5792 5791 5789 5788 5787 5787 5786 5785 5785 5784 5783 5782 5781 5781 5780 5779
5856 5856 5855 5852 5849 5847 5843 5841 5838 5836 5835 5832 5829 5827 5824 5822 5819 5816 5814 5811 5809 5806 5804 5801 5798 5795 5793 5791 5789 5787 5785 5784 5783 5781 5780 5779 5779 5778 5777 5776 5775 5774 5774 5773 5773 5773 5772 5771 5771
5855 5854 5853 5850 5848 5847 5846 5838 5835 5830 5828 5826 5824 5821 5819 5816 5812 5809 5806 5803 5800 5797 5794 5791 5788 5785 5783 5780 5777 5775 5773 5771 5770 5769 5768 5768 5767 5767 5766 5765 5765 5764 5763 5763 5763 5762 5762 5762 5762
5854 5852 5851 5848 5845 5843 5843 5837 5831 5826 5823 5820 5818 5816 5813 5809 5804 5800 5797 5794 5790 5786 5782 5779 5776 5773 5770 5767 5764 5762 5760 5758 5757 5756 5755 5754 5754 5754 5754 5754 5753 5753 5753 5752 5752 5752 5752 5752 5752
5852 5851 5848 5846 5844 5841 5838 5836 5828 5824 5820 5815 5811 5809 5805 5800 5795 5790 5786 5782 5778 5774 5770 5766 5762 5759 5756 5752 5750 5747 5745 5743 5742 5741 5740 5739 5739 5739 5740 5740 5740 5740 5740 5740 5741 5741 5741 5742 5742
5847 5846 5844 5843 5840 5837 5833 5831 5824 5818 5813 5809 5804 5800 5796 5791 5785 5780 5775 5770 5765 5761 5756 5751 5748 5744 5740 5737 5734 5731 5729 5727 5725 5724 5723 5723 5723 5723 5724 5725 5726 5726 5727 5727 5728 5729 5730 5730 5731